TimeCDT,TemperatureF,Dew PointF,Humidity,Sea Level PressureIn,VisibilityMPH,Wind Direction,Wind SpeedMPH,Gust SpeedMPH,PrecipitationIn,Events,Conditions,WindDirDegrees,DateUTC
12:53 AM,64.9,39.0,39,29.81,10.0,WNW,13.8,-,N/A,,Clear,300,2012-10-14 05:53:00
1:53 AM,61.0,41.0,48,29.83,10.0,WNW,9.2,-,N/A,,Clear,290,2012-10-14 06:53:00
2:53 AM,63.0,41.0,45,29.85,10.0,WNW,11.5,-,N/A,,Clear,290,2012-10-14 07:53:00
3:53 AM,62.1,43.0,50,29.85,10.0,WNW,13.8,-,N/A,,Clear,290,2012-10-14 08:53:00
4:53 AM,61.0,44.1,54,29.85,10.0,WNW,15.0,-,N/A,,Clear,300,2012-10-14 09:53:00
5:53 AM,60.1,45.0,57,29.89,10.0,WNW,13.8,-,N/A,,Clear,300,2012-10-14 10:53:00
6:53 AM,57.9,45.0,62,29.94,10.0,WNW,11.5,-,N/A,,Clear,300,2012-10-14 11:53:00
7:53 AM,55.9,45.0,67,29.99,10.0,WNW,10.4,-,N/A,,Clear,300,2012-10-14 12:53:00
8:53 AM,61.0,46.0,58,30.01,10.0,WNW,9.2,-,N/A,,Clear,300,2012-10-14 13:53:00
9:53 AM,66.9,45.0,45,30.05,10.0,NW,17.3,-,N/A,,Clear,320,2012-10-14 14:53:00
10:53 AM,73.0,42.1,33,30.06,10.0,NNW,17.3,-,N/A,,Clear,340,2012-10-14 15:53:00
11:53 AM,77.0,39.9,26,30.07,10.0,North,23.0,26.5,N/A,,Clear,360,2012-10-14 16:53:00
12:53 PM,81.0,37.0,21,30.08,10.0,NNE,19.6,24.2,N/A,,Clear,20,2012-10-14 17:53:00
1:53 PM,82.0,37.0,20,30.06,10.0,North,18.4,23.0,N/A,,Clear,350,2012-10-14 18:53:00
3:53 PM,82.9,36.0,19,30.03,10.0,NNW,12.7,21.9,N/A,,Clear,340,2012-10-14 20:53:00
4:53 PM,82.9,36.0,19,30.02,10.0,North,12.7,-,N/A,,Clear,360,2012-10-14 21:53:00
5:53 PM,82.0,36.0,19,30.01,10.0,North,6.9,-,N/A,,Clear,360,2012-10-14 22:53:00
6:53 PM,77.0,37.0,24,30.03,10.0,Calm,Calm,-,N/A,,Clear,0,2012-10-14 23:53:00
7:53 PM,70.0,37.0,30,30.04,10.0,ENE,5.8,-,N/A,,Clear,70,2012-10-15 00:53:00
8:53 PM,68.0,39.0,35,30.04,10.0,SE,3.5,-,N/A,,Clear,130,2012-10-15 01:53:00
9:53 PM,66.0,39.9,38,30.06,10.0,ESE,6.9,-,N/A,,Clear,110,2012-10-15 02:53:00
10:53 PM,63.0,41.0,45,30.08,10.0,South,4.6,-,N/A,,Clear,190,2012-10-15 03:53:00
11:53 PM,62.1,43.0,50,30.08,7.0,SW,4.6,-,N/A,,Clear,220,2012-10-15 04:53:00